De Queen, AR

8:20 AM CDT on September 19, 2019 (GMT -0500)
Helms Sevier County

Weather History for KDEQ - August, 2019

Change the Weather History Date:

Sunday, August 18, 2019

  Actual Average Record
Temperature  
Mean Temperature 86 °F 82 °F  
Max Temperature 96 °F 94 °F 105 °F (1954)
Min Temperature 75 °F 69 °F 55 °F (1992)
Degree Days  
Heating Degree Days 0 0  
Month to date heating degree days 0 0  
Since 1 June heating degree days 0 0  
Since 1 July heating degree days 0 0  
Cooling Degree Days 20 16  
Month to date cooling degree days 347 301  
Year to date cooling degree days 1484 1393  
Since 1 June cooling degree days 1211 1176  
Growing Degree Days 36 (Base 50)    
Moisture  
Dew Point 76 °F    
Average Humidity 79    
Maximum Humidity 100    
Minimum Humidity 49    
Precipitation  
Precipitation 0.00 in 0.06 in 2.08 in (1975)
Month to date precipitation 0.35 1.22  
Year to date precipitation 37.43 30.64  
Snow  
Snow 0.00 in - - ()
Month to date snowfall 0.0  
Since 1 June snowfall 0.0  
Since 1 July snowfall 0.0  
Snow Depth 0.00 in    
Sea Level Pressure  
Sea Level Pressure 29.87 in    
Wind  
Wind Speed 3 mph ()    
Max Wind Speed 12 mph    
Max Gust Speed 15 mph    
Visibility 9.6 miles    
Events      
T = Trace of Precipitation, MM = Missing Value Source: Averaged Metar Reports

Daily Weather History Graph

Daily Weather History Graph

Search for Another Location

Airport or City:

Astronomy

Aug. 18, 2019 Rise Set
Actual Time 6:41 AM CDT 8:01 PM CDT
Civil Twilight 6:14 AM CDT 8:27 PM CDT
Nautical Twilight 5:43 AM CDT 8:58 PM CDT
Astronomical Twilight 5:10 AM CDT 9:31 PM CDT
Moon 10:03 PM CDT (8/18) 9:21 AM CDT (8/18)
Length of Visible Light 14h 12m
Length of Day
13h 20m
Waning Gibbous, 91% of the Moon is Illuminated
Aug 18
Waning Gibbous
Aug 23
Last Quarter
Aug 30
New
Sep 5
First Quarter
Sep 13
Full

Hourly Weather History & Observations

Time (CDT) Temp. Heat Index Dew Point Humidity Pressure Visibility Wind Dir Wind Speed Gust Speed Precip Events Conditions
12:53 AM 82.0 °F 87.9 °F 73.9 °F 76% 29.84 in 10.0 mi SSE 4.6 mph - N/A   Clear
1:53 AM 81.0 °F 86.7 °F 75.0 °F 82% 29.86 in 10.0 mi Calm Calm - N/A   Partly Cloudy
2:53 AM 78.1 °F - 75.0 °F 90% 29.84 in 10.0 mi Calm Calm - N/A   Clear
3:53 AM 75.9 °F - 75.0 °F 97% 29.85 in 10.0 mi ESE 4.6 mph - N/A   Clear
4:53 AM 75.0 °F - 75.0 °F 100% 29.85 in 9.0 mi Calm Calm - N/A   Clear
5:53 AM 75.0 °F - 75.0 °F 100% 29.85 in 7.0 mi Calm Calm - N/A   Clear
6:53 AM 75.0 °F - 75.0 °F 100% 29.86 in 5.0 mi East 3.5 mph - N/A   Clear
7:53 AM 79.0 °F - 77.0 °F 94% 29.85 in 9.0 mi SSE 3.5 mph - N/A   Clear
8:36 AM 81.0 °F 88.6 °F 78.1 °F 91% 29.90 in 10.0 mi Variable 3.5 mph - N/A   Mostly Cloudy
8:53 AM 81.0 °F 88.6 °F 78.1 °F 91% 29.89 in 10.0 mi SW 5.8 mph - N/A   Mostly Cloudy
9:19 AM 82.9 °F 92.8 °F 78.1 °F 85% 29.93 in 10.0 mi WNW 5.8 mph - N/A   Mostly Cloudy
9:44 AM 84.9 °F 95.3 °F 77.0 °F 77% 29.92 in 10.0 mi WSW 6.9 mph - N/A   Scattered Clouds
9:53 AM 84.9 °F 95.3 °F 77.0 °F 77% 29.91 in 10.0 mi West 5.8 mph - N/A   Partly Cloudy
10:53 AM 89.1 °F 99.1 °F 75.0 °F 63% 29.91 in 10.0 mi WSW 8.1 mph - N/A   Clear
11:53 AM 91.0 °F 100.4 °F 73.9 °F 57% 29.91 in 10.0 mi South 6.9 mph - N/A   Partly Cloudy
12:53 PM 91.9 °F 101.3 °F 73.9 °F 55% 29.90 in 10.0 mi Variable 6.9 mph - N/A   Scattered Clouds
1:53 PM 93.0 °F 104.6 °F 75.0 °F 56% 29.89 in 10.0 mi South 6.9 mph - N/A   Scattered Clouds
2:53 PM 95.0 °F 105.2 °F 73.9 °F 50% 29.89 in 10.0 mi SE 6.9 mph - N/A   Clear
3:53 PM 93.9 °F 104.0 °F 73.9 °F 52% 29.86 in 10.0 mi SE 6.9 mph - N/A   Clear
4:53 PM 93.9 °F 104.0 °F 73.9 °F 52% 29.84 in 10.0 mi South 6.9 mph - N/A   Clear
5:53 PM 93.9 °F 105.4 °F 75.0 °F 54% 29.82 in 10.0 mi South 5.8 mph - N/A   Clear
6:53 PM 93.0 °F 104.6 °F 75.0 °F 56% 29.81 in 10.0 mi South 4.6 mph - N/A   Clear
8:53 PM 81.0 °F 89.2 °F 79.0 °F 94% 29.84 in 10.0 mi Calm Calm - N/A   Clear
9:53 PM 80.1 °F 86.7 °F 79.0 °F 96% 29.88 in 10.0 mi Calm Calm - N/A   Clear
10:53 PM 79.0 °F - 78.1 °F 97% 29.89 in 10.0 mi ENE 3.5 mph - N/A   Clear
11:42 PM 79.0 °F - 78.1 °F 97% 29.92 in 10.0 mi NE 3.5 mph - N/A   Partly Cloudy
11:53 PM 79.0 °F - 78.1 °F 97% 29.90 in 10.0 mi East 3.5 mph - N/A   Clear